Weather in Suffolk

United States     36°43′39″N   76°34′58″W
temp.,
°C
wind,
m/s
gust,
m/s
humid.,
%
clouds,
%
prec.,
mm/h
press.,
hPa
HPBL,
m
18 may, tue
tue1823:00+14ese25835 0.0 1027110
02:00+13ese229359 0.0 102752
05:00+12se1194100 0.0 102711
08:00+17e127699 0.0 1029206
11:00+23e223689 0.0 10291592
14:00+25ene3229100 0.0 10282343
17:00+24ese433597 0.0 10271564
20:00+17se37679 0.0 1027249
19 may, wed
wed1923:00+14sse378913 0.0 1028144
02:00+13s23930 0.0 102853
05:00+13sw22940 0.0 102835
08:00+17w23774 0.0 1030210
11:00+24wnw22450 0.0 10291072
14:00+28nw22320 0.0 10282158
17:00+28n11316 0.0 10262185
20:00+20sse3763100 0.0 1027195
20 may, thu
thu2023:00+17s2563100 0.0 102798
02:00+15wsw257573 0.0 102792
05:00+15w267993 0.0 1027109
08:00+19nw246298 0.0 1029172
11:00+26nnw344118 0.0 1029881
14:00+30ne443285 0.0 10282146
17:00+27ene554229 0.0 1027998
20:00+19ese59625 0.0 1029462
21 may, fri
fri2123:00+16e37675 0.0 1030230
02:00+14e247595 0.0 1030106
05:00+13ne1181100 0.0 103126
08:00+18ne356331 0.0 1032546
11:00+22ne453877 0.0 1032939
14:00+25ne453068 0.0 10301168
17:00+24ene44295 0.0 1029978
20:00+18e244459 0.0 1029100
22 may, sat
sat2223:00+14se236899 0.0 102969
02:00+13ssw127379 0.0 102827
05:00+13sw2265100 0.0 102637
08:00+17sw2353100 0.0 1027142
11:00+23wsw3438100 0.0 1025548
14:00+27wsw4538100 0.0 10221113
17:00+29sw2341100 0.0 10191077
20:00+24s226091 0.0 101839